Time,TemperatureF,DewpointF,PressureIn,WindDirection,WindDirectionDegrees,WindSpeedMPH,WindSpeedGustMPH,Humidity,HourlyPrecipIn,Conditions,Clouds,dailyrainin,SolarRadiationWatts/m^2,SoftwareType,DateUTC
2013-04-25 00:00:00,53.7,46.7,29.84,ENE,58,3.0,3.0,77,0.00,,,0.00,0,Wunderground v.1.15,2013-04-25 07:00:00,
2013-04-25 00:05:00,53.7,46.7,29.85,NE,48,3.0,5.0,77,0.00,,,0.00,0,Wunderground v.1.15,2013-04-25 07:05:00,
2013-04-25 00:10:00,53.6,46.9,29.85,NE,50,3.0,3.0,78,0.00,,,0.00,0,Wunderground v.1.15,2013-04-25 07:10:00,
2013-04-25 00:15:00,53.3,46.6,29.85,NE,51,3.0,5.0,78,0.00,,,0.00,0,Wunderground v.1.15,2013-04-25 07:15:00,
2013-04-25 00:20:00,52.9,46.6,29.85,NE,46,3.0,3.0,79,0.00,,,0.00,0,Wunderground v.1.15,2013-04-25 07:20:00,
2013-04-25 00:25:00,52.6,46.6,29.85,ENE,65,3.0,5.0,80,0.00,,,0.00,0,Wunderground v.1.15,2013-04-25 07:25:00,
2013-04-25 00:30:00,52.5,46.5,29.85,ENE,57,4.0,4.0,80,0.00,,,0.00,0,Wunderground v.1.15,2013-04-25 07:30:00,
2013-04-25 00:35:00,52.4,46.4,29.85,ENE,68,4.0,5.0,80,0.00,,,0.00,0,Wunderground v.1.15,2013-04-25 07:35:00,
2013-04-25 00:40:00,52.4,46.4,29.85,ENE,62,4.0,4.0,80,0.00,,,0.00,0,Wunderground v.1.15,2013-04-25 07:40:00,
2013-04-25 00:45:00,52.3,46.6,29.85,ENE,63,4.0,5.0,81,0.00,,,0.00,0,Wunderground v.1.15,2013-04-25 07:45:00,
2013-04-25 00:50:00,52.3,46.6,29.85,ENE,65,4.0,4.0,81,0.00,,,0.00,0,Wunderground v.1.15,2013-04-25 07:50:00,
2013-04-25 00:55:00,52.3,46.6,29.85,NE,49,4.0,5.0,81,0.00,,,0.00,0,Wunderground v.1.15,2013-04-25 07:55:00,
2013-04-25 01:00:00,52.2,46.5,29.85,NE,50,4.0,6.0,81,0.00,,,0.00,0,Wunderground v.1.15,2013-04-25 08:00:00,
2013-04-25 01:05:00,52.2,46.5,29.85,ENE,68,4.0,7.0,81,0.00,,,0.00,0,Wunderground v.1.15,2013-04-25 08:05:00,
2013-04-25 01:10:00,52.2,46.9,29.85,East,85,4.0,4.0,82,0.00,,,0.00,0,Wunderground v.1.15,2013-04-25 08:10:00,
2013-04-25 01:15:00,52.2,46.9,29.85,ENE,59,4.0,5.0,82,0.00,,,0.00,0,Wunderground v.1.15,2013-04-25 08:15:00,
2013-04-25 01:20:00,52.1,46.8,29.85,NE,49,4.0,4.0,82,0.00,,,0.00,0,Wunderground v.1.15,2013-04-25 08:20:00,
2013-04-25 01:25:00,52.1,46.8,29.85,ENE,57,3.0,5.0,82,0.00,,,0.00,0,Wunderground v.1.15,2013-04-25 08:25:00,
2013-04-25 01:30:00,52.1,46.8,29.85,ENE,59,3.0,5.0,82,0.00,,,0.00,0,Wunderground v.1.15,2013-04-25 08:30:00,
2013-04-25 01:35:00,52.1,46.8,29.86,ENE,58,4.0,5.0,82,0.00,,,0.00,0,Wunderground v.1.15,2013-04-25 08:35:00,
2013-04-25 01:40:00,51.8,46.5,29.85,ENE,62,4.0,5.0,82,0.00,,,0.00,0,Wunderground v.1.15,2013-04-25 08:40:00,
2013-04-25 01:45:00,51.8,46.5,29.86,ENE,63,4.0,5.0,82,0.00,,,0.00,0,Wunderground v.1.15,2013-04-25 08:45:00,
2013-04-25 01:50:00,51.7,46.4,29.86,ENE,77,4.0,4.0,82,0.00,,,0.00,0,Wunderground v.1.15,2013-04-25 08:50:00,
2013-04-25 01:55:00,51.7,46.7,29.86,ENE,58,3.0,5.0,83,0.00,,,0.00,0,Wunderground v.1.15,2013-04-25 08:55:00,
2013-04-25 02:00:00,51.7,46.7,29.85,NE,53,3.0,3.0,83,0.00,,,0.00,0,Wunderground v.1.15,2013-04-25 09:00:00,
2013-04-25 02:05:00,51.7,46.4,29.86,ENE,60,3.0,5.0,82,0.00,,,0.00,0,Wunderground v.1.15,2013-04-25 09:05:00,
2013-04-25 02:10:00,51.9,46.9,29.86,ENE,61,2.0,2.0,83,0.00,,,0.00,0,Wunderground v.1.15,2013-04-25 09:10:00,
2013-04-25 02:15:00,52.2,46.5,29.86,ENE,74,1.0,5.0,81,0.00,,,0.00,0,Wunderground v.1.15,2013-04-25 09:15:00,
2013-04-25 02:20:00,52.9,47.2,29.86,ESE,103,1.0,5.0,81,0.00,,,0.00,0,Wunderground v.1.15,2013-04-25 09:20:00,
2013-04-25 02:25:00,54.5,47.4,29.86,East,98,3.0,5.0,77,0.00,,,0.00,0,Wunderground v.1.15,2013-04-25 09:25:00,
2013-04-25 02:30:00,55.2,47.1,29.86,SE,138,3.0,3.0,74,0.00,,,0.00,0,Wunderground v.1.15,2013-04-25 09:30:00,
2013-04-25 02:35:00,55.3,47.2,29.86,SE,140,3.0,5.0,74,0.00,,,0.00,0,Wunderground v.1.15,2013-04-25 09:35:00,
2013-04-25 02:40:00,55.4,46.9,29.86,ESE,110,4.0,5.0,73,0.00,,,0.00,0,Wunderground v.1.15,2013-04-25 09:40:00,
2013-04-25 02:45:00,55.4,46.9,29.86,ESE,113,4.0,5.0,73,0.00,,,0.00,0,Wunderground v.1.15,2013-04-25 09:45:00,
2013-04-25 02:50:00,55.3,46.8,29.86,East,101,5.0,5.0,73,0.00,,,0.00,0,Wunderground v.1.15,2013-04-25 09:50:00,
2013-04-25 03:00:00,55.2,46.7,29.86,East,85,4.0,4.0,73,0.00,,,0.00,0,Wunderground v.1.15,2013-04-25 10:00:00,
2013-04-25 03:10:00,55.1,46.6,29.86,East,94,5.0,5.0,73,0.00,,,0.00,0,Wunderground v.1.15,2013-04-25 10:10:00,
2013-04-25 03:13:00,55.3,46.8,29.86,SE,131,5.0,5.0,73,0.00,,,0.00,0,Wunderground v.1.15,2013-04-25 10:13:00,
2013-04-25 03:15:00,55.1,46.6,29.87,East,88,4.0,5.0,73,0.00,,,0.00,0,Wunderground v.1.15,2013-04-25 10:15:00,
2013-04-25 03:20:00,55.1,46.6,29.87,ESE,105,3.0,3.0,73,0.00,,,0.00,0,Wunderground v.1.15,2013-04-25 10:20:00,
2013-04-25 03:23:00,55.2,46.7,29.86,ESE,116,4.0,5.0,73,0.00,,,0.00,0,Wunderground v.1.15,2013-04-25 10:23:00,
2013-04-25 03:25:00,55.1,46.6,29.87,ESE,117,3.0,5.0,73,0.00,,,0.00,0,Wunderground v.1.15,2013-04-25 10:25:00,
2013-04-25 03:35:00,55.0,46.9,29.87,East,94,5.0,7.0,74,0.00,,,0.00,0,Wunderground v.1.15,2013-04-25 10:35:00,
2013-04-25 03:40:00,55.0,46.9,29.87,ESE,114,5.0,5.0,74,0.00,,,0.00,0,Wunderground v.1.15,2013-04-25 10:40:00,
2013-04-25 03:45:00,55.0,46.9,29.87,ESE,113,5.0,5.0,74,0.00,,,0.00,0,Wunderground v.1.15,2013-04-25 10:45:00,
2013-04-25 03:48:00,55.1,46.6,29.87,ESE,121,3.0,7.0,73,0.00,,,0.00,0,Wunderground v.1.15,2013-04-25 10:48:00,
2013-04-25 03:50:00,54.8,46.7,29.87,SSE,147,4.0,7.0,74,0.00,,,0.00,0,Wunderground v.1.15,2013-04-25 10:50:00,
2013-04-25 03:55:00,54.8,46.7,29.87,ESE,110,4.0,7.0,74,0.00,,,0.00,0,Wunderground v.1.15,2013-04-25 10:55:00,
2013-04-25 04:00:00,54.6,46.8,29.88,ESE,113,5.0,5.0,75,0.00,,,0.00,0,Wunderground v.1.15,2013-04-25 11:00:00,
2013-04-25 04:05:00,54.5,46.7,29.88,ESE,111,5.0,5.0,75,0.00,,,0.00,0,Wunderground v.1.15,2013-04-25 11:05:00,
2013-04-25 04:10:00,54.3,46.9,29.88,ESE,117,5.0,7.0,76,0.00,,,0.00,0,Wunderground v.1.15,2013-04-25 11:10:00,
2013-04-25 04:20:00,54.0,47.0,29.89,ESE,113,5.0,5.0,77,0.00,,,0.00,0,Wunderground v.1.15,2013-04-25 11:20:00,
2013-04-25 04:25:00,54.0,47.0,29.89,ESE,115,5.0,5.0,77,0.00,,,0.00,0,Wunderground v.1.15,2013-04-25 11:25:00,
2013-04-25 04:33:00,54.1,46.7,29.88,ESE,119,5.0,8.0,76,0.00,,,0.00,0,Wunderground v.1.15,2013-04-25 11:33:00,
2013-04-25 04:35:00,53.7,46.7,29.89,ESE,110,4.0,5.0,77,0.00,,,0.00,0,Wunderground v.1.15,2013-04-25 11:35:00,
2013-04-25 04:40:00,53.6,46.6,29.89,SE,130,3.0,3.0,77,0.00,,,0.00,0,Wunderground v.1.15,2013-04-25 11:40:00,
2013-04-25 04:48:00,53.8,46.8,29.88,ESE,103,5.0,5.0,77,0.00,,,0.00,0,Wunderground v.1.15,2013-04-25 11:48:00,
2013-04-25 04:50:00,53.5,46.8,29.89,East,101,5.0,5.0,78,0.00,,,0.00,0,Wunderground v.1.15,2013-04-25 11:50:00,
2013-04-25 05:00:00,53.3,46.6,29.90,SE,134,4.0,9.0,78,0.00,,,0.00,0,Wunderground v.1.15,2013-04-25 12:00:00,
2013-04-25 05:03:00,53.5,46.8,29.89,ENE,72,4.0,4.0,78,0.00,,,0.00,0,Wunderground v.1.15,2013-04-25 12:03:00,
2013-04-25 05:05:00,53.2,46.5,29.90,ESE,107,4.0,9.0,78,0.00,,,0.00,0,Wunderground v.1.15,2013-04-25 12:05:00,
2013-04-25 05:13:00,53.4,46.7,29.90,ESE,115,4.0,5.0,78,0.00,,,0.00,0,Wunderground v.1.15,2013-04-25 12:13:00,
2013-04-25 05:15:00,53.0,46.7,29.89,East,101,4.0,5.0,79,0.00,,,0.00,0,Wunderground v.1.15,2013-04-25 12:15:00,
2013-04-25 05:28:00,53.1,46.4,29.89,ESE,107,4.0,4.0,78,0.00,,,0.00,0,Wunderground v.1.15,2013-04-25 12:28:00,
2013-04-25 05:30:00,52.7,46.4,29.90,ESE,121,3.0,3.0,79,0.00,,,0.00,0,Wunderground v.1.15,2013-04-25 12:30:00,
2013-04-25 05:38:00,53.0,46.7,29.89,SE,128,3.0,5.0,79,0.00,,,0.00,0,Wunderground v.1.15,2013-04-25 12:38:00,
2013-04-25 05:40:00,52.6,46.3,29.90,ESE,114,2.0,5.0,79,0.00,,,0.00,0,Wunderground v.1.15,2013-04-25 12:40:00,
2013-04-25 05:50:00,52.5,46.2,29.91,East,101,2.0,5.0,79,0.00,,,0.00,0,Wunderground v.1.15,2013-04-25 12:50:00,
2013-04-25 05:53:00,52.6,46.3,29.90,ESE,113,2.0,5.0,79,0.00,,,0.00,0,Wunderground v.1.15,2013-04-25 12:53:00,
2013-04-25 06:03:00,52.6,46.3,29.90,ESE,103,2.0,5.0,79,0.00,,,0.00,0,Wunderground v.1.15,2013-04-25 13:03:00,
2013-04-25 06:05:00,52.3,46.3,29.91,ESE,114,3.0,5.0,80,0.00,,,0.00,11,Wunderground v.1.15,2013-04-25 13:05:00,
2013-04-25 06:13:00,52.4,46.1,29.91,SE,140,3.0,5.0,79,0.00,,,0.00,0,Wunderground v.1.15,2013-04-25 13:13:00,
2013-04-25 06:15:00,52.2,45.9,29.92,ESE,102,3.0,5.0,79,0.00,,,0.00,19,Wunderground v.1.15,2013-04-25 13:15:00,
2013-04-25 06:28:00,52.2,46.2,29.92,ESE,112,3.0,5.0,80,0.00,,,0.00,14,Wunderground v.1.15,2013-04-25 13:28:00,
2013-04-25 06:30:00,52.3,46.0,29.93,East,80,2.0,5.0,79,0.00,,,0.00,37,Wunderground v.1.15,2013-04-25 13:30:00,
2013-04-25 06:35:00,52.3,46.0,29.93,East,94,2.0,5.0,79,0.00,,,0.00,46,Wunderground v.1.15,2013-04-25 13:35:00,
2013-04-25 06:38:00,52.2,45.9,29.92,East,95,3.0,3.0,79,0.00,,,0.00,23,Wunderground v.1.15,2013-04-25 13:38:00,
2013-04-25 06:43:00,52.1,45.8,29.93,ESE,105,2.0,5.0,79,0.00,,,0.00,30,Wunderground v.1.15,2013-04-25 13:43:00,
2013-04-25 06:50:00,52.5,45.8,29.94,ESE,112,2.0,2.0,78,0.00,,,0.00,77,Wunderground v.1.15,2013-04-25 13:50:00,
2013-04-25 06:58:00,52.4,46.1,29.93,East,100,2.0,2.0,79,0.00,,,0.00,54,Wunderground v.1.15,2013-04-25 13:58:00,
2013-04-25 07:05:00,52.8,45.8,29.94,ESE,109,2.0,4.0,77,0.00,,,0.00,127,Wunderground v.1.15,2013-04-25 14:05:00,
2013-04-25 07:13:00,52.6,45.9,29.94,ESE,103,2.0,5.0,78,0.00,,,0.00,91,Wunderground v.1.15,2013-04-25 14:13:00,
2013-04-25 07:18:00,52.8,46.1,29.94,ESE,103,2.0,2.0,78,0.00,,,0.00,107,Wunderground v.1.15,2013-04-25 14:18:00,
2013-04-25 07:28:00,52.9,45.9,29.94,East,88,3.0,3.0,77,0.00,,,0.00,142,Wunderground v.1.15,2013-04-25 14:28:00,
2013-04-25 07:30:00,54.0,46.3,29.95,ESE,116,1.0,5.0,75,0.00,,,0.00,76,Wunderground v.1.15,2013-04-25 14:30:00,
2013-04-25 07:38:00,53.6,46.2,29.94,East,96,2.0,5.0,76,0.00,,,0.00,181,Wunderground v.1.15,2013-04-25 14:38:00,
2013-04-25 07:43:00,53.9,46.2,29.95,East,87,2.0,5.0,75,0.00,,,0.00,197,Wunderground v.1.15,2013-04-25 14:43:00,
2013-04-25 07:53:00,54.4,46.6,29.96,East,84,1.0,5.0,75,0.00,,,0.00,76,Wunderground v.1.15,2013-04-25 14:53:00,
2013-04-25 07:58:00,54.4,46.6,29.95,East,84,2.0,2.0,75,0.00,,,0.00,77,Wunderground v.1.15,2013-04-25 14:58:00,
2013-04-25 08:08:00,54.8,46.3,29.95,ESE,107,2.0,2.0,73,0.00,,,0.00,83,Wunderground v.1.15,2013-04-25 15:08:00,
2013-04-25 08:13:00,54.9,46.4,29.96,ESE,107,2.0,3.0,73,0.00,,,0.00,81,Wunderground v.1.15,2013-04-25 15:13:00,
2013-04-25 08:18:00,55.7,46.8,29.96,ESE,108,2.0,2.0,72,0.00,,,0.00,322,Wunderground v.1.15,2013-04-25 15:18:00,
2013-04-25 08:23:00,55.8,46.5,29.96,East,100,2.0,5.0,71,0.00,,,0.00,339,Wunderground v.1.15,2013-04-25 15:23:00,
2013-04-25 08:29:00,56.0,46.4,29.96,ENE,57,2.0,2.0,70,0.00,,,0.00,350,Wunderground v.1.15,2013-04-25 15:29:00,
2013-04-25 08:33:00,56.4,46.7,29.96,ENE,78,1.0,5.0,70,0.00,,,0.00,374,Wunderground v.1.15,2013-04-25 15:33:00,
2013-04-25 08:38:00,56.2,46.5,29.96,ENE,74,2.0,2.0,70,0.00,,,0.00,390,Wunderground v.1.15,2013-04-25 15:38:00,
2013-04-25 08:43:00,56.8,46.7,29.97,ESE,121,2.0,5.0,69,0.00,,,0.00,411,Wunderground v.1.15,2013-04-25 15:43:00,
2013-04-25 08:53:00,57.5,46.2,29.97,East,82,3.0,5.0,66,0.00,,,0.00,439,Wunderground v.1.15,2013-04-25 15:53:00,
2013-04-25 08:58:00,58.2,46.5,29.97,East,101,3.0,3.0,65,0.00,,,0.00,461,Wunderground v.1.15,2013-04-25 15:58:00,
2013-04-25 09:09:00,58.5,46.4,29.98,ENE,78,3.0,7.0,64,0.00,,,0.00,494,Wunderground v.1.15,2013-04-25 16:09:00,
2013-04-25 09:13:00,58.4,46.7,29.98,East,94,4.0,7.0,65,0.00,,,0.00,512,Wunderground v.1.15,2013-04-25 16:13:00,
2013-04-25 09:18:00,58.8,46.6,29.98,East,90,4.0,4.0,64,0.00,,,0.00,527,Wunderground v.1.15,2013-04-25 16:18:00,
2013-04-25 09:23:00,59.3,47.1,29.98,East,86,3.0,6.0,64,0.00,,,0.00,545,Wunderground v.1.15,2013-04-25 16:23:00,
2013-04-25 09:28:00,60.0,47.4,29.98,East,96,3.0,5.0,63,0.00,,,0.00,559,Wunderground v.1.15,2013-04-25 16:28:00,
2013-04-25 09:33:00,60.3,46.8,29.98,East,100,3.0,6.0,61,0.00,,,0.00,575,Wunderground v.1.15,2013-04-25 16:33:00,
2013-04-25 09:38:00,60.6,47.1,29.99,ENE,72,4.0,5.0,61,0.00,,,0.00,592,Wunderground v.1.15,2013-04-25 16:38:00,
2013-04-25 09:43:00,60.5,47.0,29.99,ESE,109,4.0,5.0,61,0.00,,,0.00,606,Wunderground v.1.15,2013-04-25 16:43:00,
2013-04-25 09:48:00,61.2,47.6,29.99,East,98,4.0,5.0,61,0.00,,,0.00,621,Wunderground v.1.15,2013-04-25 16:48:00,
2013-04-25 09:53:00,61.9,47.9,29.99,ESE,109,4.0,5.0,60,0.00,,,0.00,638,Wunderground v.1.15,2013-04-25 16:53:00,
2013-04-25 09:58:00,62.0,47.5,29.99,East,81,4.0,6.0,59,0.00,,,0.00,652,Wunderground v.1.15,2013-04-25 16:58:00,
2013-04-25 10:03:00,62.2,47.7,29.99,East,84,5.0,6.0,59,0.00,,,0.00,664,Wunderground v.1.15,2013-04-25 17:03:00,
2013-04-25 10:08:00,62.4,47.4,30.00,SE,139,5.0,5.0,58,0.00,,,0.00,679,Wunderground v.1.15,2013-04-25 17:08:00,
2013-04-25 10:13:00,62.9,47.4,30.00,ENE,74,4.0,5.0,57,0.00,,,0.00,693,Wunderground v.1.15,2013-04-25 17:13:00,
2013-04-25 10:19:00,63.2,47.2,30.00,East,101,4.0,6.0,56,0.00,,,0.00,707,Wunderground v.1.15,2013-04-25 17:19:00,
2013-04-25 10:28:00,63.4,46.9,30.00,ESE,114,6.0,6.0,55,0.00,,,0.00,735,Wunderground v.1.15,2013-04-25 17:28:00,
2013-04-25 10:33:00,63.2,47.2,30.00,East,88,5.0,6.0,56,0.00,,,0.00,745,Wunderground v.1.15,2013-04-25 17:33:00,
2013-04-25 10:38:00,64.3,47.8,30.00,ESE,102,5.0,7.0,55,0.00,,,0.00,754,Wunderground v.1.15,2013-04-25 17:38:00,
2013-04-25 10:43:00,65.0,47.4,30.00,ESE,110,5.0,7.0,53,0.00,,,0.00,770,Wunderground v.1.15,2013-04-25 17:43:00,
2013-04-25 10:48:00,64.7,47.7,30.00,ESE,113,5.0,8.0,54,0.00,,,0.00,779,Wunderground v.1.15,2013-04-25 17:48:00,
2013-04-25 10:53:00,64.9,47.4,30.00,ESE,113,7.0,8.0,53,0.00,,,0.00,791,Wunderground v.1.15,2013-04-25 17:53:00,
2013-04-25 10:59:00,65.6,48.0,30.00,SE,127,5.0,6.0,53,0.00,,,0.00,802,Wunderground v.1.15,2013-04-25 17:59:00,
2013-04-25 11:03:00,65.8,47.7,30.00,East,92,5.0,8.0,52,0.00,,,0.00,810,Wunderground v.1.15,2013-04-25 18:03:00,
2013-04-25 11:13:00,66.6,47.9,30.00,East,98,5.0,8.0,51,0.00,,,0.00,830,Wunderground v.1.15,2013-04-25 18:13:00,
2013-04-25 11:23:00,66.7,48.0,30.00,ESE,121,6.0,6.0,51,0.00,,,0.00,847,Wunderground v.1.15,2013-04-25 18:23:00,
2013-04-25 11:33:00,68.3,47.3,30.00,ESE,116,6.0,7.0,47,0.00,,,0.00,865,Wunderground v.1.15,2013-04-25 18:33:00,
2013-04-25 11:39:00,68.8,47.7,30.00,East,99,5.0,8.0,47,0.00,,,0.00,872,Wunderground v.1.15,2013-04-25 18:39:00,
2013-04-25 11:48:00,69.4,47.7,30.00,SE,134,5.0,5.0,46,0.00,,,0.00,886,Wunderground v.1.15,2013-04-25 18:48:00,
2013-04-25 11:58:00,69.2,48.1,30.00,East,98,6.0,6.0,47,0.00,,,0.00,900,Wunderground v.1.15,2013-04-25 18:58:00,
2013-04-25 12:03:00,69.0,47.9,30.00,ESE,110,6.0,6.0,47,0.00,,,0.00,905,Wunderground v.1.15,2013-04-25 19:03:00,
2013-04-25 12:08:00,68.2,47.8,30.00,SE,136,7.0,7.0,48,0.00,,,0.00,909,Wunderground v.1.15,2013-04-25 19:08:00,
2013-04-25 12:13:00,69.0,48.5,30.00,SE,134,7.0,8.0,48,0.00,,,0.00,912,Wunderground v.1.15,2013-04-25 19:13:00,
2013-04-25 12:18:00,69.3,48.2,30.00,ESE,121,6.0,8.0,47,0.00,,,0.00,918,Wunderground v.1.15,2013-04-25 19:18:00,
2013-04-25 12:23:00,68.6,47.6,30.00,ESE,109,7.0,8.0,47,0.00,,,0.00,923,Wunderground v.1.15,2013-04-25 19:23:00,
2013-04-25 12:28:00,69.6,48.5,29.99,East,98,7.0,9.0,47,0.00,,,0.00,926,Wunderground v.1.15,2013-04-25 19:28:00,
2013-04-25 12:33:00,69.0,47.9,29.99,SE,132,7.0,9.0,47,0.00,,,0.00,928,Wunderground v.1.15,2013-04-25 19:33:00,
2013-04-25 12:38:00,69.5,48.4,29.99,SSE,163,7.0,7.0,47,0.00,,,0.00,932,Wunderground v.1.15,2013-04-25 19:38:00,
2013-04-25 12:43:00,69.8,47.5,29.99,ESE,116,7.0,7.0,45,0.00,,,0.00,937,Wunderground v.1.15,2013-04-25 19:43:00,
2013-04-25 12:49:00,69.4,47.7,29.99,East,94,7.0,7.0,46,0.00,,,0.00,937,Wunderground v.1.15,2013-04-25 19:49:00,
2013-04-25 12:53:00,70.5,48.1,29.99,ESE,107,6.0,8.0,45,0.00,,,0.00,937,Wunderground v.1.15,2013-04-25 19:53:00,
2013-04-25 12:58:00,69.7,48.6,29.99,SE,134,6.0,7.0,47,0.00,,,0.00,939,Wunderground v.1.15,2013-04-25 19:58:00,
2013-04-25 13:03:00,70.2,47.9,29.99,East,96,6.0,7.0,45,0.00,,,0.00,937,Wunderground v.1.15,2013-04-25 20:03:00,
2013-04-25 13:08:00,70.1,48.9,29.99,East,101,7.0,7.0,47,0.00,,,0.00,940,Wunderground v.1.15,2013-04-25 20:08:00,
2013-04-25 13:13:00,70.6,48.8,29.99,East,90,7.0,7.0,46,0.00,,,0.00,940,Wunderground v.1.15,2013-04-25 20:13:00,
2013-04-25 13:18:00,70.5,47.5,30.00,ESE,115,7.0,7.0,44,0.00,,,0.00,939,Wunderground v.1.15,2013-04-25 20:18:00,
2013-04-25 13:23:00,69.7,48.0,29.99,ESE,105,6.0,8.0,46,0.00,,,0.00,937,Wunderground v.1.15,2013-04-25 20:23:00,
2013-04-25 13:29:00,71.0,48.6,29.99,East,98,6.0,6.0,45,0.00,,,0.00,937,Wunderground v.1.15,2013-04-25 20:29:00,
2013-04-25 13:38:00,71.2,48.2,29.99,East,86,6.0,7.0,44,0.00,,,0.00,932,Wunderground v.1.15,2013-04-25 20:38:00,
2013-04-25 13:43:00,71.8,48.7,29.99,SSE,157,6.0,8.0,44,0.00,,,0.00,926,Wunderground v.1.15,2013-04-25 20:43:00,
2013-04-25 13:53:00,72.5,49.3,29.99,ESE,113,5.0,5.0,44,0.00,,,0.00,919,Wunderground v.1.15,2013-04-25 20:53:00,
2013-04-25 13:58:00,72.4,49.3,29.99,ESE,119,5.0,9.0,44,0.00,,,0.00,918,Wunderground v.1.15,2013-04-25 20:58:00,
2013-04-25 14:03:00,72.3,48.5,30.00,East,87,6.0,9.0,43,0.00,,,0.00,914,Wunderground v.1.15,2013-04-25 21:03:00,
2013-04-25 14:09:00,71.9,48.2,29.99,ESE,107,6.0,8.0,43,0.00,,,0.00,909,Wunderground v.1.15,2013-04-25 21:09:00,
2013-04-25 14:13:00,73.3,48.8,29.99,ESE,102,6.0,8.0,42,0.00,,,0.00,904,Wunderground v.1.15,2013-04-25 21:13:00,
2013-04-25 14:18:00,73.7,49.2,29.99,ESE,104,5.0,7.0,42,0.00,,,0.00,896,Wunderground v.1.15,2013-04-25 21:18:00,
2013-04-25 14:23:00,73.0,48.5,29.99,SE,143,5.0,7.0,42,0.00,,,0.00,891,Wunderground v.1.15,2013-04-25 21:23:00,
2013-04-25 14:28:00,73.5,49.0,29.99,ESE,103,5.0,8.0,42,0.00,,,0.00,884,Wunderground v.1.15,2013-04-25 21:28:00,
2013-04-25 14:38:00,72.9,48.5,29.99,East,90,7.0,8.0,42,0.00,,,0.00,874,Wunderground v.1.15,2013-04-25 21:38:00,
2013-04-25 14:43:00,73.3,47.5,29.99,East,80,6.0,8.0,40,0.00,,,0.00,865,Wunderground v.1.15,2013-04-25 21:43:00,
2013-04-25 14:48:00,74.0,48.8,29.99,ESE,109,5.0,5.0,41,0.00,,,0.00,856,Wunderground v.1.15,2013-04-25 21:48:00,
2013-04-25 14:53:00,73.9,48.1,29.99,East,98,5.0,8.0,40,0.00,,,0.00,849,Wunderground v.1.15,2013-04-25 21:53:00,
2013-04-25 14:58:00,73.7,47.9,29.99,ESE,117,5.0,5.0,40,0.00,,,0.00,838,Wunderground v.1.15,2013-04-25 21:58:00,
2013-04-25 15:03:00,74.2,49.0,29.99,SSE,165,5.0,5.0,41,0.00,,,0.00,831,Wunderground v.1.15,2013-04-25 22:03:00,
2013-04-25 15:08:00,74.2,49.0,29.98,East,87,5.0,7.0,41,0.00,,,0.00,821,Wunderground v.1.15,2013-04-25 22:08:00,
2013-04-25 15:13:00,74.5,47.9,29.98,ESE,119,5.0,10.0,39,0.00,,,0.00,812,Wunderground v.1.15,2013-04-25 22:13:00,
2013-04-25 15:19:00,74.0,49.4,29.98,SE,130,6.0,7.0,42,0.00,,,0.00,802,Wunderground v.1.15,2013-04-25 22:19:00,
2013-04-25 15:23:00,73.8,49.3,29.98,East,79,6.0,8.0,42,0.00,,,0.00,791,Wunderground v.1.15,2013-04-25 22:23:00,
2013-04-25 15:33:00,74.2,49.6,29.98,SSE,168,6.0,7.0,42,0.00,,,0.00,768,Wunderground v.1.15,2013-04-25 22:33:00,
2013-04-25 15:38:00,74.4,49.8,29.98,ESE,116,5.0,5.0,42,0.00,,,0.00,756,Wunderground v.1.15,2013-04-25 22:38:00,
2013-04-25 15:43:00,74.4,48.5,29.98,ESE,107,4.0,9.0,40,0.00,,,0.00,735,Wunderground v.1.15,2013-04-25 22:43:00,
2013-04-25 15:48:00,73.7,49.2,29.98,SE,138,6.0,7.0,42,0.00,,,0.00,744,Wunderground v.1.15,2013-04-25 22:48:00,
2013-04-25 15:53:00,73.2,48.7,29.98,SE,132,6.0,7.0,42,0.00,,,0.00,728,Wunderground v.1.15,2013-04-25 22:53:00,
2013-04-25 15:59:00,74.6,50.0,29.98,ESE,111,6.0,6.0,42,0.00,,,0.00,717,Wunderground v.1.15,2013-04-25 22:59:00,
2013-04-25 16:03:00,74.3,49.7,29.98,ESE,123,5.0,6.0,42,0.00,,,0.00,705,Wunderground v.1.15,2013-04-25 23:03:00,
2013-04-25 16:08:00,74.4,49.2,29.98,East,97,5.0,8.0,41,0.00,,,0.00,673,Wunderground v.1.15,2013-04-25 23:08:00,
2013-04-25 16:18:00,74.2,49.0,29.97,ESE,121,5.0,5.0,41,0.00,,,0.00,668,Wunderground v.1.15,2013-04-25 23:18:00,
2013-04-25 16:23:00,74.8,49.5,29.97,ESE,106,5.0,5.0,41,0.00,,,0.00,652,Wunderground v.1.15,2013-04-25 23:23:00,
2013-04-25 16:28:00,74.6,50.0,29.97,East,99,5.0,5.0,42,0.00,,,0.00,638,Wunderground v.1.15,2013-04-25 23:28:00,
2013-04-25 16:33:00,74.4,49.2,29.97,SE,128,6.0,6.0,41,0.00,,,0.00,621,Wunderground v.1.15,2013-04-25 23:33:00,
2013-04-25 16:39:00,74.1,50.2,29.97,SE,144,6.0,6.0,43,0.00,,,0.00,434,Wunderground v.1.15,2013-04-25 23:39:00,
2013-04-25 16:44:00,74.3,50.4,29.97,SE,138,5.0,6.0,43,0.00,,,0.00,580,Wunderground v.1.15,2013-04-25 23:44:00,
2013-04-25 16:48:00,74.5,50.5,29.97,ESE,110,5.0,5.0,43,0.00,,,0.00,563,Wunderground v.1.15,2013-04-25 23:48:00,
2013-04-25 16:53:00,73.9,48.7,29.97,ESE,111,5.0,5.0,41,0.00,,,0.00,552,Wunderground v.1.15,2013-04-25 23:53:00,
2013-04-25 16:58:00,74.0,50.7,29.97,ESE,109,6.0,6.0,44,0.00,,,0.00,536,Wunderground v.1.15,2013-04-25 23:58:00,
2013-04-25 17:03:00,73.9,50.6,29.98,ESE,115,5.0,6.0,44,0.00,,,0.00,504,Wunderground v.1.15,2013-04-26 00:03:00,
2013-04-25 17:08:00,73.2,50.6,29.98,ESE,120,5.0,5.0,45,0.00,,,0.00,214,Wunderground v.1.15,2013-04-26 00:08:00,
2013-04-25 17:13:00,73.3,50.1,29.98,SE,138,5.0,5.0,44,0.00,,,0.00,483,Wunderground v.1.15,2013-04-26 00:13:00,
2013-04-25 17:18:00,73.7,49.8,29.98,SE,127,4.0,7.0,43,0.00,,,0.00,466,Wunderground v.1.15,2013-04-26 00:18:00,
2013-04-25 17:23:00,73.6,50.3,29.98,ESE,109,5.0,8.0,44,0.00,,,0.00,450,Wunderground v.1.15,2013-04-26 00:23:00,
2013-04-25 17:28:00,72.7,50.7,29.98,East,81,6.0,6.0,46,0.00,,,0.00,431,Wunderground v.1.15,2013-04-26 00:28:00,
2013-04-25 17:38:00,72.8,50.2,29.98,East,97,6.0,6.0,45,0.00,,,0.00,392,Wunderground v.1.15,2013-04-26 00:38:00,
2013-04-25 17:43:00,72.7,50.7,29.98,East,94,6.0,6.0,46,0.00,,,0.00,373,Wunderground v.1.15,2013-04-26 00:43:00,
2013-04-25 17:48:00,72.6,50.6,29.98,East,99,5.0,5.0,46,0.00,,,0.00,353,Wunderground v.1.15,2013-04-26 00:48:00,
2013-04-25 17:53:00,72.1,50.2,29.98,ESE,109,7.0,7.0,46,0.00,,,0.00,339,Wunderground v.1.15,2013-04-26 00:53:00,
2013-04-25 17:59:00,71.9,51.1,29.98,East,94,7.0,7.0,48,0.00,,,0.00,322,Wunderground v.1.15,2013-04-26 00:59:00,
2013-04-25 18:03:00,72.1,51.3,29.98,SE,130,5.0,7.0,48,0.00,,,0.00,304,Wunderground v.1.15,2013-04-26 01:03:00,
2013-04-25 18:08:00,72.3,50.9,29.98,SSE,152,5.0,5.0,47,0.00,,,0.00,287,Wunderground v.1.15,2013-04-26 01:08:00,
2013-04-25 18:13:00,71.8,50.5,29.98,SSE,162,5.0,5.0,47,0.00,,,0.00,267,Wunderground v.1.15,2013-04-26 01:13:00,
2013-04-25 18:18:00,71.6,50.9,29.98,SE,132,5.0,5.0,48,0.00,,,0.00,248,Wunderground v.1.15,2013-04-26 01:18:00,
2013-04-25 18:23:00,71.4,51.2,29.98,SE,138,5.0,5.0,49,0.00,,,0.00,230,Wunderground v.1.15,2013-04-26 01:23:00,
2013-04-25 18:28:00,71.2,51.1,29.98,SE,132,4.0,6.0,49,0.00,,,0.00,213,Wunderground v.1.15,2013-04-26 01:28:00,
2013-04-25 18:39:00,70.6,51.1,29.98,East,92,4.0,7.0,50,0.00,,,0.00,172,Wunderground v.1.15,2013-04-26 01:39:00,
2013-04-25 18:43:00,70.0,51.0,29.98,SE,132,5.0,7.0,51,0.00,,,0.00,153,Wunderground v.1.15,2013-04-26 01:43:00,
2013-04-25 18:48:00,69.5,51.1,29.98,ESE,113,5.0,5.0,52,0.00,,,0.00,134,Wunderground v.1.15,2013-04-26 01:48:00,
2013-04-25 18:58:00,69.0,51.2,29.98,ESE,119,5.0,5.0,53,0.00,,,0.00,97,Wunderground v.1.15,2013-04-26 01:58:00,
2013-04-25 19:03:00,68.8,51.0,29.98,East,92,4.0,5.0,53,0.00,,,0.00,77,Wunderground v.1.15,2013-04-26 02:03:00,
2013-04-25 19:08:00,68.1,50.3,29.98,ESE,111,5.0,5.0,53,0.00,,,0.00,69,Wunderground v.1.15,2013-04-26 02:08:00,
2013-04-25 19:13:00,67.6,50.4,29.99,East,95,6.0,6.0,54,0.00,,,0.00,56,Wunderground v.1.15,2013-04-26 02:13:00,
2013-04-25 19:19:00,67.2,50.5,29.99,ESE,121,5.0,5.0,55,0.00,,,0.00,35,Wunderground v.1.15,2013-04-26 02:19:00,
2013-04-25 19:23:00,66.7,50.0,29.99,SE,136,5.0,5.0,55,0.00,,,0.00,28,Wunderground v.1.15,2013-04-26 02:23:00,
2013-04-25 19:28:00,66.4,50.2,29.99,SE,126,5.0,5.0,56,0.00,,,0.00,25,Wunderground v.1.15,2013-04-26 02:28:00,
2013-04-25 19:33:00,66.1,50.4,29.99,ESE,117,5.0,5.0,57,0.00,,,0.00,18,Wunderground v.1.15,2013-04-26 02:33:00,
2013-04-25 19:38:00,65.8,50.1,30.00,SE,135,4.0,5.0,57,0.00,,,0.00,14,Wunderground v.1.15,2013-04-26 02:38:00,
2013-04-25 19:48:00,65.4,50.7,30.00,East,90,3.0,5.0,59,0.00,,,0.00,5,Wunderground v.1.15,2013-04-26 02:48:00,
2013-04-25 19:53:00,65.2,50.5,30.00,ESE,120,3.0,8.0,59,0.00,,,0.00,0,Wunderground v.1.15,2013-04-26 02:53:00,
2013-04-25 20:03:00,64.5,49.8,30.00,ESE,121,3.0,5.0,59,0.00,,,0.00,0,Wunderground v.1.15,2013-04-26 03:03:00,
2013-04-25 20:08:00,64.0,49.8,30.01,SE,128,3.0,5.0,60,0.00,,,0.00,0,Wunderground v.1.15,2013-04-26 03:08:00,
2013-04-25 20:13:00,63.8,50.1,30.00,ESE,113,3.0,5.0,61,0.00,,,0.00,0,Wunderground v.1.15,2013-04-26 03:13:00,
2013-04-25 20:18:00,63.6,49.9,30.00,ESE,107,3.0,3.0,61,0.00,,,0.00,0,Wunderground v.1.15,2013-04-26 03:18:00,
2013-04-25 20:23:00,63.4,49.7,30.01,East,90,3.0,7.0,61,0.00,,,0.00,0,Wunderground v.1.15,2013-04-26 03:23:00,
2013-04-25 20:29:00,62.7,49.1,30.01,ESE,110,4.0,5.0,61,0.00,,,0.00,0,Wunderground v.1.15,2013-04-26 03:29:00,
2013-04-25 20:33:00,62.2,49.0,30.01,ESE,108,6.0,6.0,62,0.00,,,0.00,0,Wunderground v.1.15,2013-04-26 03:33:00,
2013-04-25 20:38:00,62.1,49.4,30.01,ESE,116,4.0,5.0,63,0.00,,,0.00,0,Wunderground v.1.15,2013-04-26 03:38:00,
2013-04-25 20:43:00,61.9,49.2,30.02,East,97,4.0,5.0,63,0.00,,,0.00,0,Wunderground v.1.15,2013-04-26 03:43:00,
2013-04-25 20:45:00,61.1,48.8,30.02,East,92,3.0,5.0,64,0.00,,,0.00,0,Wunderground v.1.15,2013-04-26 03:45:00,
2013-04-25 20:48:00,61.8,49.1,30.02,ESE,114,3.0,5.0,63,0.00,,,0.00,0,Wunderground v.1.15,2013-04-26 03:48:00,
2013-04-25 20:50:00,60.7,48.4,30.03,ESE,107,4.0,9.0,64,0.00,,,0.00,0,Wunderground v.1.15,2013-04-26 03:50:00,
2013-04-25 20:53:00,61.4,48.7,30.02,East,99,4.0,5.0,63,0.00,,,0.00,0,Wunderground v.1.15,2013-04-26 03:53:00,
2013-04-25 20:55:00,60.4,48.2,30.03,East,82,5.0,9.0,64,0.00,,,0.00,0,Wunderground v.1.15,2013-04-26 03:55:00,
2013-04-25 20:58:00,61.3,49.0,30.02,ESE,123,3.0,5.0,64,0.00,,,0.00,0,Wunderground v.1.15,2013-04-26 03:58:00,
2013-04-25 21:00:00,60.2,48.4,30.03,East,91,5.0,5.0,65,0.00,,,0.00,0,Wunderground v.1.15,2013-04-26 04:00:00,
2013-04-25 21:05:00,60.1,48.3,30.03,East,89,5.0,5.0,65,0.00,,,0.00,0,Wunderground v.1.15,2013-04-26 04:05:00,
2013-04-25 21:10:00,59.8,48.0,30.03,East,86,5.0,5.0,65,0.00,,,0.00,0,Wunderground v.1.15,2013-04-26 04:10:00,
2013-04-25 21:15:00,59.6,48.2,30.04,East,98,5.0,5.0,66,0.00,,,0.00,0,Wunderground v.1.15,2013-04-26 04:15:00,
2013-04-25 21:20:00,59.5,48.1,30.04,East,82,5.0,5.0,66,0.00,,,0.00,0,Wunderground v.1.15,2013-04-26 04:20:00,
2013-04-25 21:25:00,59.4,48.0,30.04,ESE,115,5.0,5.0,66,0.00,,,0.00,0,Wunderground v.1.15,2013-04-26 04:25:00,
2013-04-25 21:30:00,59.2,47.8,30.04,ESE,115,5.0,5.0,66,0.00,,,0.00,0,Wunderground v.1.15,2013-04-26 04:30:00,
2013-04-25 21:35:00,58.9,48.0,30.04,East,98,6.0,6.0,67,0.00,,,0.00,0,Wunderground v.1.15,2013-04-26 04:35:00,
2013-04-25 21:40:00,58.9,48.0,30.04,SE,125,4.0,6.0,67,0.00,,,0.00,0,Wunderground v.1.15,2013-04-26 04:40:00,
2013-04-25 21:45:00,58.6,47.7,30.05,East,100,4.0,6.0,67,0.00,,,0.00,0,Wunderground v.1.15,2013-04-26 04:45:00,
2013-04-25 21:50:00,58.4,47.9,30.05,East,97,4.0,5.0,68,0.00,,,0.00,0,Wunderground v.1.15,2013-04-26 04:50:00,
2013-04-25 21:55:00,58.2,48.1,30.05,East,84,3.0,5.0,69,0.00,,,0.00,0,Wunderground v.1.15,2013-04-26 04:55:00,
2013-04-25 22:00:00,58.0,47.9,30.05,SE,127,2.0,5.0,69,0.00,,,0.00,0,Wunderground v.1.15,2013-04-26 05:00:00,
2013-04-25 22:05:00,58.0,47.9,30.05,East,92,2.0,5.0,69,0.00,,,0.00,0,Wunderground v.1.15,2013-04-26 05:05:00,
2013-04-25 22:10:00,57.7,48.0,30.05,East,92,2.0,2.0,70,0.00,,,0.00,0,Wunderground v.1.15,2013-04-26 05:10:00,
2013-04-25 22:15:00,57.5,47.8,30.05,ENE,66,2.0,5.0,70,0.00,,,0.00,0,Wunderground v.1.15,2013-04-26 05:15:00,
2013-04-25 22:20:00,57.5,47.8,30.05,East,90,2.0,6.0,70,0.00,,,0.00,0,Wunderground v.1.15,2013-04-26 05:20:00,
2013-04-25 22:25:00,57.4,48.1,30.05,ESE,113,2.0,6.0,71,0.00,,,0.00,0,Wunderground v.1.15,2013-04-26 05:25:00,
2013-04-25 22:30:00,57.1,47.8,30.05,ENE,58,2.0,5.0,71,0.00,,,0.00,0,Wunderground v.1.15,2013-04-26 05:30:00,
2013-04-25 22:35:00,57.0,47.7,30.05,East,96,3.0,5.0,71,0.00,,,0.00,0,Wunderground v.1.15,2013-04-26 05:35:00,
2013-04-25 22:40:00,56.8,47.5,30.06,ENE,72,3.0,5.0,71,0.00,,,0.00,0,Wunderground v.1.15,2013-04-26 05:40:00,
2013-04-25 22:45:00,56.7,47.8,30.06,East,98,3.0,5.0,72,0.00,,,0.00,0,Wunderground v.1.15,2013-04-26 05:45:00,
2013-04-25 22:50:00,56.4,47.5,30.06,East,100,2.0,7.0,72,0.00,,,0.00,0,Wunderground v.1.15,2013-04-26 05:50:00,
2013-04-25 22:55:00,56.4,47.5,30.06,East,83,3.0,7.0,72,0.00,,,0.00,0,Wunderground v.1.15,2013-04-26 05:55:00,
2013-04-25 23:00:00,56.3,47.4,30.06,East,88,4.0,4.0,72,0.00,,,0.00,0,Wunderground v.1.15,2013-04-26 06:00:00,
2013-04-25 23:05:00,56.2,47.3,30.06,East,82,2.0,5.0,72,0.00,,,0.00,0,Wunderground v.1.15,2013-04-26 06:05:00,
2013-04-25 23:10:00,56.1,47.6,30.06,ENE,74,3.0,3.0,73,0.00,,,0.00,0,Wunderground v.1.15,2013-04-26 06:10:00,
2013-04-25 23:15:00,55.7,47.2,30.06,NE,55,3.0,5.0,73,0.00,,,0.00,0,Wunderground v.1.15,2013-04-26 06:15:00,
2013-04-25 23:20:00,55.4,47.2,30.06,ENE,64,3.0,5.0,74,0.00,,,0.00,0,Wunderground v.1.15,2013-04-26 06:20:00,
2013-04-25 23:25:00,55.2,47.4,30.06,ENE,72,2.0,5.0,75,0.00,,,0.00,0,Wunderground v.1.15,2013-04-26 06:25:00,
2013-04-25 23:30:00,55.0,47.2,30.06,ENE,66,2.0,5.0,75,0.00,,,0.00,0,Wunderground v.1.15,2013-04-26 06:30:00,
2013-04-25 23:35:00,54.8,47.4,30.06,East,91,2.0,6.0,76,0.00,,,0.00,0,Wunderground v.1.15,2013-04-26 06:35:00,
2013-04-25 23:40:00,55.0,47.2,30.06,ESE,104,2.0,5.0,75,0.00,,,0.00,0,Wunderground v.1.15,2013-04-26 06:40:00,
2013-04-25 23:45:00,55.0,47.2,30.06,ENE,73,3.0,5.0,75,0.00,,,0.00,0,Wunderground v.1.15,2013-04-26 06:45:00,
2013-04-25 23:50:00,55.1,47.3,30.06,East,86,3.0,3.0,75,0.00,,,0.00,0,Wunderground v.1.15,2013-04-26 06:50:00,
2013-04-25 23:55:00,55.0,47.2,30.06,East,90,3.0,5.0,75,0.00,,,0.00,0,Wunderground v.1.15,2013-04-26 06:55:00,